STARLINK-5794 (56006 NORAD) Tracking and Keplerian Element Data

This shows tracking and keplerian element data for the satellite.

Feedback or suggestion? Click here.




ElementValue
Catalog56006
NameSTARLINK-5794
Epoch Orbit712
Epoch Day127.00001157
Epoch Year2023
RAAN297.4863
Inclination43.0007
Eccentricity0.0001513
Argument of Perigee271.8054
Mean Anonmoly3.2835
Mean Motion15.38363685
Decay Rate-0.00923367
L11 56006U 23042W 23127.00001157 -.00923367 00000+0 -26037-1 0 9997
L22 56006 43.0007 297.4863 0001513 271.8054 3.2835 15.38363685 7128



Live tracking and technical data element details for STARLINK-5794 (NORAD 56006). STARLINK-5794 can be tracked NOW for your location showing map with azimuth and elevation plus other details from your city location.







IsCatalogInMostPopularTable: catalog: 56006, numindb: 1
Update: records affected: 1



GetName: 56006 STARLINK-5794

Hit Count: updated at: Sat, 03 Jun 2023 18:35:23 GMT